Home   Weather   Fresnillo   Past weeks

Flag for Mexico Past Weather in Fresnillo, Zacatecas, Mexico — Yesterday and Last 2 Weeks

Now
57 °F

Light rain. Overcast.


Feels Like: 53 °F
Forecast: 43 / 66 °F
Wind: 23 mph from Southwest

Location: Zacatecas Airport

Current Time: Jan 18, 2017 at 8:12:37 pm

Latest Report: Jan 18, 2017 at 6:40 pm


Visibility: 7 mi

Pressure: 30.26 "Hg (23.33 "Hg at 2187m altitude)

Humidity: 48%

Dew Point: 37 °F

Location of FresnilloLocation

Past Weather in Fresnillo — Graph

°F

Fresnillo Temperature Yesterday

Maximum temperature yesterday: 66 °F (at 1:48 pm)
Minimum temperature yesterday: 48 °F (at 1:01 am)
Average temperature yesterday: 56 °F

High & Low Weather Summary for the Past Weeks

 TemperatureHumidityPressure
High79 °F (Jan 4, 1:55 pm)81% (Jan 8, 4:42 am)30.58 "Hg (Jan 8, 4:42 am)
Low28 °F (Jan 10, 6:40 am)11% (Jan 11, 4:42 pm)30.09 "Hg (Jan 5, 3:50 pm)
Average55 °F37%30.30 "Hg
* Reported Jan 3 6:03 pm — Jan 18 6:40 pm, Fresnillo, Weather by CustomWeather, © 2017

Note: Actual official high and low records may vary slightly from our data, if they occured in-between our weather recording intervals... More about our weather records

Advertising

Fresnillo Weather History for the Previous 24 Hours

Scroll right to see more
 ConditionsComfort  
Time TempWeatherWind HumidityBarometerVisibility
6:40 pm
Wed, Jan 18
57 °FLight rain. Overcast.23 mph48%30.26 "Hg7 mi
5:45 pm59 °FOvercast.23 mph42%30.23 "Hg10 mi
4:49 pm63 °FOvercast.23 mph37%30.22 "Hg10 mi
4:13 pm63 °FOvercast.25 mph34%30.22 "Hg10 mi
3:48 pm64 °FPartly sunny.25 mph32%30.21 "Hg10 mi
2:43 pm66 °FPartly sunny.24 mph32%30.21 "Hg10 mi
1:46 pm64 °FBroken clouds.23 mph32%30.24 "Hg10 mi
12:50 pm63 °FPartly sunny.17 mph39%30.29 "Hg10 mi
11:58 am61 °FPartly sunny.29 mph39%30.31 "Hg10 mi
10:46 am57 °FPartly sunny.17 mph44%30.33 "Hg10 mi
9:52 am55 °FPartly sunny.12 mph51%30.32 "Hg10 mi
7:43 am48 °FPartly sunny.6 mph62%30.29 "Hg10 mi
6:41 am48 °FPassing clouds.9 mph62%30.28 "Hg8 mi
5:46 am48 °FPassing clouds.7 mph62%30.28 "Hg8 mi
4:42 am48 °FOvercast.3 mph62%30.26 "Hg8 mi
12:40 am48 °FPassing clouds.No wind58%30.28 "Hg8 mi
11:40 pm
Tue, Jan 17
52 °FPassing clouds.No wind54%30.29 "Hg8 mi
10:41 pm52 °FPassing clouds.No wind50%30.28 "Hg8 mi
9:52 pm54 °FPassing clouds.8 mph51%30.28 "Hg8 mi
8:44 pm54 °FPartly cloudy.10 mph51%30.25 "Hg10 mi
Weather by CustomWeather, © 2017

See weather overviewHow to use our weather pages